This demonstration page uses our WeatherBlox Daily Observations layout. Learn more.

Left ArrowRight Arrow

Hourly Observations for May 22, 2022

Temp ( °F °C ) Dew Point ( °F °C ) Humidity (%) Winds ( mph kmh ) Pressure ( in mb ) Visibility ( mi km ) Precip ( " mm )
12:56 am 00:56 Clear 44 6.6 33 0.3 64 64 Calm 30.34 1027 10 16 0.00 0.00
1:56 am 01:56 Clear 44 6.4 31 -0.4 62 62 Calm 30.35 1028 9 14 0.00 0.00
2:56 am 02:56 Clear 41 4.8 32 0.2 72 72 Calm 30.34 1027 10 16 0.00 0.00
3:56 am 03:56 Clear 40 4.7 33 0.3 73 73 Calm 30.35 1028 10 16 0.00 0.00
4:56 am 04:56 Clear 40 4.5 33 0.3 74 74 NW 7 11 30.37 1029 10 16 0.00 0.00
5:56 am 05:56 Clear 40 4.3 33 0.8 78 78 Calm 30.41 1030 10 16 0.00 0.00
6:56 am 06:56 Sunny 42 5.4 33 0.6 71 71 Calm 30.45 1031 10 16 0.00 0.00
7:56 am 07:56 Sunny 47 8.4 36 2 64 64 NW 7 11 30.44 1031 10 16 0.00 0.00
8:56 am 08:56 Sunny 53 11.5 35 1.7 51 51 WNW 6 9 30.47 1032 10 16 0.00 0.00
9:56 am 09:56 Sunny 57 14.1 34 1 41 41 NW 8 13 30.47 1032 10 16 0.00 0.00
10:56 am 10:56 Sunny 59 15.2 32 0.2 36 36 WNW 13 20 30.45 1031 10 16 0.00 0.00
11:56 am 11:56 Sunny 61 16 33 0.5 35 35 NW 14 22 30.45 1031 10 16 0.00 0.00
12:56 pm 12:56 Mostly Sunny 63 17.2 34 1.2 34 34 NW 9 15 30.43 1030 10 16 0.00 0.00
1:56 pm 13:56 Mostly Sunny 65 18.4 32 0 29 29 W 9 15 30.40 1029 10 16 0.00 0.00
2:56 pm 14:56 Sunny 66 18.9 32 0 28 28 W 10 17 30.37 1028 10 16 0.00 0.00
3:56 pm 15:56 Sunny 68 20 33 0.4 27 27 N 5 7 30.34 1027 10 16 0.00 0.00
4:56 pm 16:56 Mostly Sunny 68 20 32 -0.1 26 26 WNW 6 9 30.32 1027 10 16 0.00 0.00
5:56 pm 17:56 Mostly Sunny 69 20.6 33 0.4 26 26 N 10 17 30.32 1027 10 16 0.00 0.00
6:56 pm 18:56 Mostly Cloudy 68 19.8 31 -0.3 26 26 NNE 7 11 30.31 1026 10 16 0.00 0.00
7:56 pm 19:56 Cloudy 64 17.9 30 -0.9 28 28 NE 7 11 30.31 1026 10 16 0.00 0.00
8:56 pm 20:56 Mostly Cloudy 62 16.7 31 -0.5 31 31 ENE 6 9 30.31 1027 10 16 0.00 0.00
9:56 pm 21:56 Mostly Cloudy 59 15.2 33 0.6 37 37 E 5 7 30.33 1027 10 16 0.00 0.00
10:56 pm 22:56 Cloudy 58 14.6 32 0.1 37 37 E 5 7 30.34 1028 10 16 0.00 0.00
11:56 pm 23:56 Cloudy 57 13.8 33 0.4 40 40 E 3 6 30.35 1028 10 16 0.00 0.00

Powered by AerisWeather